PROFILE

 METAR AND TAF INFORMATION
ADDS - METARS form results

(0439 UTC 25 April 2019)
http://aviationweather.gov/metar/data/
 
LSGG 250420Z 04003KT 010V080 CAVOK 07/06 Q1009 NOSIG
LSGG 250350Z 02002KT CAVOK 07/06 Q1009 NOSIG
TAF LSGG 250225Z 2503/2609 VRB03KT CAVOK TX18/2515Z TN07/2505Z TN06/2606Z BECMG 2512/2514 23010KT 9999 BKN090 BECMG 2517/2519 RA BECMG 2602/2604 NSW 

 AIRPORT MAP

 RUNWAY INFORMATION
Runway 05 Runway length 12795 ft Runway width 164 ft
Runway elevation 1411 ft Runway displaced threshold 1082 ft Runway heading 46
Runway 23 Runway length 12795 ft Runway width 164 ft
Runway elevation 1365 ft Runway displaced threshold 0 ft Runway heading 226
Runway 05L Runway length 2700 ft Runway width 98 ft
Runway elevation 1378 ft Runway displaced threshold 613 ft Runway heading 46
Runway 23R Runway length 2700 ft Runway width 98 ft
Runway elevation 1393 ft Runway displaced threshold 994 ft Runway heading 226

 AIRPORT FREQUENCIES
Type APP Name APP Frequency 120.3 MHZ
Type ARR Name ARR Frequency 136.25 MHZ
Type ATIS Name ATIS Frequency 135.575 MHZ
Type DEP Name DEP Frequency 119.525 MHZ
Type GND Name GND Frequency 121.675 MHZ
Type GTE Name APN Frequency 121.75 MHZ
Type TWR Name TWR Frequency 118.7 MHZ

 AIRPORT NEAR NAVIGATION AIDS
Type NDB Name Gland Frequency 375 KHZ
Type VOR-DME Name Geneva Cointrin Frequency 115750 KHZ
Type VOR-DME Name Passeiry Frequency 116600 KHZ